This is the latest recevied weather packets stored in our database for station/object PE1BMM-13. If no packets are shown the sender has not sent any weather packets the latest 1 day(s).
| Time | Temp. | Humidity | Pressure | Rain* | Wind** | Luminosity | Snow |
|---|---|---|---|---|---|---|---|
| 1777977968 | 13.33° C | 69% | 1012.6 hPa | 0 mm | 1.79 m/s, 136° | - | - |
| 1777977662 | 13.33° C | 70% | 1012.6 hPa | 0 mm | 1.79 m/s, 122° | - | - |
| 1777977356 | 13.33° C | 72% | 1012.6 hPa | 0 mm | 1.79 m/s, 122° | - | - |
| 1777977051 | 13.33° C | 71% | 1012.7 hPa | 0 mm | 1.79 m/s, 104° | - | - |
| 1777976744 | 13.33° C | 70% | 1012.8 hPa | 0 mm | 2.24 m/s, 104° | - | - |
| 1777976438 | 13.33° C | 69% | 1013 hPa | 0 mm | 1.79 m/s, 122° | - | - |
| 1777976132 | 13.33° C | 70% | 1012.8 hPa | 0 mm | 1.79 m/s, 89° | - | - |
| 1777975839 | 13.33° C | 69% | 1012.9 hPa | 0 mm | 1.34 m/s, 122° | - | - |
| 1777975520 | 13.89° C | 69% | 1012.9 hPa | 0 mm | 1.34 m/s, 112° | - | - |
| 1777975214 | 13.33° C | 70% | 1012.8 hPa | 0 mm | 1.34 m/s, 61° | - | - |
| 1777974908 | 13.33° C | 69% | 1012.8 hPa | 0 mm | 1.34 m/s, 83° | - | - |
| 1777974602 | 13.33° C | 70% | 1012.8 hPa | 0 mm | 1.34 m/s, 140° | - | - |
| 1777974321 | 13.33° C | 71% | 1012.7 hPa | 0 mm | 1.79 m/s, 157° | - | - |
| 1777974034 | 12.78° C | 70% | 1012.6 hPa | 0 mm | 1.79 m/s, 91° | - | - |
| 1777973684 | 12.78° C | 70% | 1012.5 hPa | 0 mm | 1.79 m/s, 127° | - | - |
| 1777973378 | 12.78° C | 70% | 1012.4 hPa | 0 mm | 1.34 m/s, 27° | - | - |
| 1777973072 | 13.33° C | 71% | 1012.5 hPa | 0 mm | 1.34 m/s, 135° | - | - |
| 1777972766 | 12.78° C | 71% | 1012.5 hPa | 0 mm | 1.34 m/s, 117° | - | - |
| 1777972460 | 12.78° C | 72% | 1012.5 hPa | 0 mm | 1.79 m/s, 29° | - | - |
| 1777972154 | 12.78° C | 70% | 1012.4 hPa | 0 mm | 1.79 m/s, 71° | - | - |
| 1777971848 | 13.33° C | 70% | 1012.6 hPa | 0 mm | 1.34 m/s, 127° | - | - |
| 1777971541 | 12.78° C | 72% | 1012.5 hPa | 0 mm | 1.34 m/s, 147° | - | - |
| 1777971236 | 12.78° C | 72% | 1012.6 hPa | 0 mm | 1.79 m/s, 117° | - | - |
| 1777970931 | 12.78° C | 73% | 1012.7 hPa | 0 mm | 1.79 m/s, 117° | - | - |
| 1777970625 | 12.78° C | 72% | 1012.6 hPa | 0 mm | 1.79 m/s, 94° | - | - |
* Rain latest hour (hover to see other rain measurements)
** Current wind speed in m/s (hover to see current wind gust speed)